Location: Basardilla
(41.0274°N, 4.0260°W)
Time: 23:02:13
(UTC+00:00)

Daily predictions for brighter satellites

Satellite Brightness Start Highest point End
(mag) Time Altitude Azimuth Time Altitude Azimuth Time Altitude Azimuth
Cosmos 1833 4.2 20:19:03 10° SSW 20:24:38 72° ESE 20:30:15 10° NNE
S3M 4.1 20:18:42 10° N 20:25:00 65° E 20:31:10 10° SSE
Cosmos 2228 Rocket 3.5 20:22:27 10° SSE 20:26:47 45° E 20:31:09 10° NNE
ERS-1 Rocket 4.3 20:23:22 10° ESE 20:27:23 25° ENE 20:31:27 10° NNE
SL-27 R/B 2.8 20:24:50 10° SSW 20:27:32 51° WNW 20:30:16 10° N
USA 186 3.7 20:28:40 10° SSW 20:31:39 31° W 20:34:37 10° NNW
Cosmos 1300 3.1 20:29:07 10° N 20:32:30 41° E 20:35:52 10° SSE
DELTA 2 DEB (DPAF) 4.2 20:29:19 10° N 20:33:32 77° WNW 20:37:42 10° SSW
Cosmos 1741 Rocket 4.4 20:29:19 10° SSW 20:34:34 71° WNW 20:39:53 10° NNE
Meteor 1-12 Rocket 4.5 20:29:01 10° N 20:35:02 67° ENE 20:40:56 10° SSE
Cosmos 2322 Rocket 2.4 20:29:57 10° NNW 20:35:40 80° WSW 20:41:21 10° SSE
Meteor 1-23 Rocket 4.3 20:30:59 10° S 20:36:39 82° E 20:42:26 10° NNE
Cosmos 2333 4.5 20:33:05 10° NNW 20:38:49 61° ENE 20:44:31 10° SE
Cosmos 2297 Rocket 4.1 20:38:58 10° ESE 20:39:59 10° E 20:41:02 10° E
Cosmos 841 Rocket 4.2 20:35:33 10° NNW 20:40:40 53° WSW 20:45:44 10° S
Aureole 3 4.4 20:37:20 10° SSE 20:41:25 39° E 20:46:26 10° NNE
Cosmos 1707 Rocket 3.7 20:37:16 10° S 20:41:37 58° E 20:45:58 10° NNE
Cosmos 1356 Rocket 3.4 20:37:30 10° S 20:41:40 75° E 20:45:53 10° NNE
Cosmos 1758 3.3 20:42:55 10° N 20:46:52 71° E 20:50:47 10° SSE
Cosmos 2219 Rocket 2.5 20:45:08 10° NNW 20:50:43 55° ENE 20:55:42 13° SE
BREEZE-M DEB (TANK) 3.9 20:47:43 10° W 20:50:59 56° NNW 21:01:12 10° ENE
MOS 1 4.3 20:46:11 10° SSE 20:51:49 82° ENE 20:57:28 10° NNW
CZ-4 R/B 4.1 20:50:12 10° SW 20:52:37 15° W 20:55:03 10° NW
ATLAS 2AS CENTAUR R/B 2.8 20:49:03 10° NW 20:55:50 76° WSW 21:02:00 12° SSE
Delta 2 Rocket 4.1 20:54:02 10° SSW 20:56:30 20° SSE 20:57:39 17° SE
Cosmos 1733 Rocket 3.1 20:54:48 10° N 20:59:15 72° E 21:03:22 12° SSE
Spot 2 Rocket 4.3 20:56:42 14° SE 21:00:39 37° ENE 21:05:19 10° N
Cosmos 1455 3.6 20:58:42 10° NNE 21:01:22 20° ENE 21:02:59 15° ESE
Cosmos 1655 Rocket 4.1 20:55:08 10° S 21:01:32 86° W 21:07:58 10° N
SPOT 3 Rocket 4.5 20:58:51 14° SE 21:02:41 34° ENE 21:07:18 10° N
Resurs 01 Rocket 3.7 21:02:50 10° SSW 21:06:23 24° W 21:09:57 10° NW
MetOp-B 4.2 21:05:45 10° SSE 21:11:02 85° WSW 21:16:25 10° NNW
SeaSat 1 3.7 21:08:35 13° ESE 21:12:10 30° NE 21:16:26 10° N
Meteor 2-10 Rocket 4.2 21:09:39 10° NNW 21:14:53 53° W 21:19:53 10° S
Cosmos 2360 Rocket 3.1 21:15:08 10° NW 21:20:27 43° WSW 21:25:45 10° S
Cosmos 1953 2.8 21:17:18 10° N 21:20:55 40° ENE 21:22:43 24° SE
Cosmos 1908 Rocket 4.2 21:17:09 10° N 21:21:11 37° ENE 21:23:21 22° SE
COSMOS 2428 3.3 21:15:47 10° NNW 21:21:16 46° ENE 21:25:01 19° SE
CENTAUR R/B 3.8 21:23:45 15° ESE 21:24:14 15° ESE 21:27:37 10° ENE
Ariane Rocket 3.2 21:22:31 20° SSE 21:25:57 60° ENE 21:30:58 10° N
Cosmos 2084 Rocket 3.7 21:25:06 10° SSW 21:29:15 44° ESE 21:33:15 10° NE
Cosmos 1486 Rocket 4.3 21:31:43 20° SSE 21:34:57 45° ESE 21:39:54 10° NNE
Cosmos 1315 Rocket 3.0 21:32:42 11° SSW 21:36:31 69° W 21:40:31 10° N
Cosmos 1346 Rocket 4.4 21:33:47 10° NNW 21:37:08 29° W 21:40:28 10° SSW
SJ 16-02 3.7 21:40:01 10° WSW 21:43:32 24° WNW 21:47:04 10° N
Cosmos 839 Rocket 4.3 21:38:40 10° NW 21:45:07 62° WSW 21:49:05 22° S
GP-B 4.1 21:42:08 10° NNE 21:46:01 29° E 21:47:05 26° ESE
Cosmos 371 Rocket 3.5 21:43:55 26° SSE 21:46:16 49° ESE 21:50:55 10° NNE
NOSS 0 Rocket 4.3 21:41:30 10° NNW 21:47:36 53° ENE 21:51:08 25° SE
SL-4 R/B 2.0 21:45:48 10° NW 21:49:41 71° NE 21:51:27 32° ESE
MOS 1 Rocket 3.6 21:46:18 22° S 21:49:49 78° WSW 21:55:00 10° NNW
Terra 2.1 21:48:01 21° S 21:51:02 61° W 21:55:43 10° NNW
USA 234 3.2 21:46:32 10° NE 21:53:03 67° SE 21:59:32 10° SW
Okean 1-7 3.7 21:50:54 12° SSW 21:54:42 52° W 21:58:55 10° N
Spot 1 4.3 21:53:12 10° NNE 21:58:00 71° ESE 22:00:41 27° S
Cosmos 1386 Rocket 4.4 21:54:35 23° S 21:58:35 71° E 22:04:42 10° NNE
SL-16 R/B 4.5 21:57:15 10° NNE 22:00:01 14° NE 22:02:46 10° ENE
Cosmos 1703 Rocket 3.7 21:57:19 22° SSW 22:00:07 75° W 22:04:34 10° N
COSMOS 2455 3.0 21:55:13 10° SSW 22:01:14 78° WNW 22:07:18 10° NNE
Cosmos 2333 Rocket 4.2 21:57:29 10° NW 22:01:45 22° W 22:06:01 10° SSW
Cosmos 2237 Rocket 3.0 21:57:03 10° N 22:02:20 39° ENE 22:05:00 25° ESE
Cosmos 1745 Rocket 4.1 21:58:44 26° SSE 22:02:22 65° E 22:08:40 10° NNE
Cosmos 1242 Rocket 3.2 22:01:36 26° WSW 22:02:30 35° WNW 22:05:01 10° N
Landsat 5 3.4 21:59:14 10° NNE 22:03:25 76° E 22:05:09 35° S
CZ-4C R/B 2.0 21:59:19 10° SW 22:03:36 68° NW 22:08:57 10° NNE
Cosmos 2227 Rocket 3.0 22:03:20 28° ESE 22:04:17 30° ESE 22:09:09 10° NE
ERS-1 Rocket 4.1 22:02:25 16° SSW 22:05:55 38° W 22:10:36 10° NNW
Nadezhda 1 Rocket 4.0 22:03:54 10° N 22:10:08 72° E 22:13:03 33° SSE
Cosmos 304 Rocket 3.6 22:13:19 33° S 22:15:25 80° ESE 22:20:12 10° NNE
Cosmos 773 Rocket 4.3 22:11:12 10° N 22:16:16 55° ENE 22:18:03 37° ESE
Cosmos 2322 4.2 22:11:23 10° NNW 22:16:52 52° WSW 22:19:32 29° SSW
Cosmos 1980 4.1 22:11:23 10° NNW 22:16:57 54° ENE 22:19:14 33° ESE
Cosmos 2297 Rocket 2.1 22:19:32 24° SSW 22:23:04 86° ESE 22:28:45 10° NNE
CZ-3 Stage 3 4.5 21:34:01 10° W 22:25:01 54° SSW 22:32:03 29° SSE
Cosmos 1703 3.1 22:33:06 64° ENE 22:33:06 64° ENE 22:36:35 10° NNE
Cosmos 1408 2.8 22:33:30 49° WNW 22:33:30 49° WNW 22:36:09 10° N
NOSS 3-2 (A) 3.9 22:33:40 32° ESE 22:33:40 32° ESE 22:38:20 10° NE
Cosmos 2219 Rocket 4.1 22:30:06 10° NW 22:34:11 21° W 22:37:25 13° SW
Cosmos 1455 4.0 22:33:00 10° NW 22:35:40 21° W 22:36:42 18° WSW
CZ-2C R/B 3.7 22:32:16 10° NNE 22:36:40 59° ESE 22:37:07 56° SE
Cosmos 2098 Rocket 4.3 22:30:54 10° N 22:37:05 48° ENE 22:38:52 37° ESE
Cosmos 2219 4.1 22:37:54 30° ESE 22:38:00 30° ESE 22:42:50 10° NE
Cosmos 1777 Rocket 3.9 22:39:06 38° SSW 22:41:13 88° WNW 22:46:31 10° NNE
Cosmos 332 Rocket 3.8 22:41:57 56° SE 22:42:37 62° ESE 22:47:27 10° NNE
Cosmos 1825 4.0 22:44:58 18° ENE 22:44:58 18° ENE 22:46:24 10° NE
Cosmos 2263 Rocket 3.5 22:44:08 24° E 22:44:08 24° E 22:48:09 10° NE
Meteor 1-24 Rocket 3.6 22:42:45 46° SSE 22:44:28 73° E 22:50:00 10° NNE
SeaSat 1 3.3 22:48:17 32° SW 22:49:29 37° WSW 22:54:03 10° NW
Cosmos 1503 Rocket 4.4 22:48:35 26° SW 22:51:30 60° WNW 22:56:44 10° NNE
Cosmos 2242 Rocket 4.2 22:52:19 39° SW 22:53:39 54° W 22:58:08 10° N
Sich 1 Rocket 4.4 22:51:51 10° N 22:55:56 37° ENE 22:56:03 37° E
PSLV R/B 3.8 22:55:02 10° NNE 22:58:44 70° ENE 22:58:44 70° ENE
Cosmos 1174 3.7 22:55:14 10° NNW 22:59:35 78° W 22:59:35 78° W
Cosmos 1709 Rocket 4.2 22:58:05 32° SSW 23:01:05 66° W 23:07:25 10° N
Cosmos 1892 3.8 23:03:07 33° NE 23:03:07 33° NE 23:05:25 10° NNE
Spot 4 4.4 23:03:31 42° E 23:04:13 45° ENE 23:08:48 10° N
COSMOS 2428 4.2 23:00:36 10° NW 23:05:11 25° WSW 23:07:01 22° SW
Cosmos 967 Rocket 4.4 23:11:00 48° S 23:12:53 72° ESE 23:19:21 10° NE
CENTAUR R/B 2.4 23:10:49 32° SW 23:13:35 77° NW 23:20:24 10° NNE
Cosmos 405 Rocket 3.1 23:14:52 10° NNW 23:18:05 57° NW 23:18:05 57° NW
ARIANE 5 R/B 2.8 23:19:17 59° WSW 23:19:21 59° W 23:23:40 10° NNW
Cosmos 1898 Rocket 4.2 23:25:20 38° E 23:25:20 38° E 23:29:49 10° NE
Cosmos 1378 Rocket 3.6 23:25:05 71° W 23:25:09 71° W 23:29:34 10° N
Aureole 1 Rocket 3.8 23:26:55 41° ENE 23:26:55 41° ENE 23:30:33 10° NNE
Cosmos 2184 Rocket 4.1 23:26:26 52° SSE 23:27:52 67° E 23:34:12 10° NNE
SL-4 R/B 4.4 23:25:17 10° W 23:26:10 14° W 23:26:10 14° W
Cosmos 1674 Rocket 3.5 23:29:17 77° WNW 23:29:17 77° WNW 23:33:31 10° N
H-2A R/B 2.5 23:32:26 77° NW 23:32:26 77° NW 23:36:24 10° NNW
USA 234 4.4 23:29:46 10° NE 23:35:49 42° NNW 23:41:52 10° W
SL-16 R/B 2.1 23:39:22 10° NNW 23:45:05 78° ENE 23:46:02 62° SE
Cosmos 2237 Rocket 3.3 23:41:22 10° NW 23:46:12 30° WSW 23:46:48 29° WSW
Cosmos 990 Rocket 4.3 23:45:22 50° WSW 23:46:20 59° WNW 23:51:25 10° NNE
Spot 2 4.3 23:46:01 75° SE 23:46:24 82° ENE 23:51:24 10° NNW
Cosmos 2154 Rocket 3.9 23:45:18 58° SSE 23:46:34 76° E 23:52:52 10° N
Cosmos 2227 Rocket 3.3 23:45:04 22° WSW 23:48:08 39° WNW 23:53:26 10° N
USA 281 3.3 23:46:56 51° SSW 23:48:27 66° WSW 23:55:01 10° NNW
Cosmos 2082 3.5 23:50:40 70° S 23:51:20 83° ESE 23:56:58 10° NNE
Cosmos 2151 Rocket 4.2 23:47:29 10° NNW 23:51:27 45° W 23:51:27 45° W
USA 238 DEB 4.3 23:52:03 33° ESE 23:52:03 33° ESE 23:57:36 10° NE
USA 238 4.3 23:52:06 32° ESE 23:52:06 32° ESE 23:57:37 10° NE
Cosmos 292 Rocket 3.6 23:52:49 83° W 23:52:53 83° WNW 23:57:43 10° NNE
PSLV R/B 3.9 23:51:25 10° NNE 23:54:55 56° NE 23:54:55 56° NE
